Flag for Luxembourg Weather past 2 weeks in Luxembourg, Luxembourg

Now
23 °F

Partly sunny.


Feels Like: 8 °F
Forecast: 12 / 36 °F
Wind: 21 mph from Northeast

Location: Luxembourg Airport

Current Time: Dec 28, 2014 at 9:48:09 AM

Latest Report: Dec 28, 2014 at 8:50 AM


Visibility: N/A

Pressure: 29.95 "Hg

Humidity: 80%

Dew point: 18 °F

Location of LuxembourgLocation

Historic Weather in Luxembourg — Graph

°F

Luxembourg temperature yesterday

Maximum temperature yesterday: 34 °F (at 12:20 AM)
Minimum temperature yesterday: 28 °F (at 10:50 PM)
Average temperature yesterday: 32 °F

Past Weeks' High & Low Weather Summary

 TemperatureHumidityPressure
High52 °F (Dec 18, 10:50 AM)100% (Dec 13, 8:20 AM)30.48 "Hg (Dec 13, 8:20 AM)
Low23 °F (Dec 28, 7:20 AM)80% (Dec 28, 6:50 AM)29.27 "Hg (Dec 27, 1:50 PM)
Average40 °F96%30.06 "Hg
* Reported Dec 13 8:20 AM — Dec 28 8:20 AM, Luxembourg, Weather by CustomWeather, © 2014

Note: Actual official high and low records may vary slightly from our data, if they occured in-between our weather recording intervals... More about our weather records

Advertising

Luxembourg weather history for previous 24 hours

 ConditionsComfort  
Time TempWeatherWind HumidityBarometerVisibility
8:20 AM
Dec 28
23 °FPassing clouds.21 mph80%29.92 "HgN/A
7:50 AM23 °FPassing clouds.22 mph80%29.89 "HgN/A
7:20 AM23 °FPassing clouds.18 mph86%29.86 "HgN/A
6:50 AM25 °FPassing clouds.20 mph80%29.83 "HgN/A
6:20 AM25 °FPassing clouds.23 mph93%29.80 "HgN/A
5:50 AM25 °FPassing clouds.23 mph93%29.77 "HgN/A
5:20 AM27 °FPassing clouds.23 mph93%29.74 "HgN/A
4:20 AM27 °FPassing clouds.22 mph100%29.71 "Hg5 mi
3:50 AM27 °FPartly cloudy.18 mph100%29.68 "Hg5 mi
3:20 AM27 °FChilly.18 mph100%29.65 "HgN/A
2:50 AM27 °FChilly.18 mph100%29.65 "HgN/A
2:20 AM27 °FChilly.17 mph100%29.62 "HgN/A
1:50 AM28 °FPartly cloudy.17 mph93%29.59 "Hg6 mi
1:20 AM28 °FPartly cloudy.17 mph100%29.56 "Hg5 mi
12:50 AM28 °FPartly cloudy.20 mph100%29.56 "Hg5 mi
12:20 AM28 °FPartly cloudy.17 mph100%29.53 "Hg5 mi
11:50 PM
Dec 27
28 °FLight snow. Partly cloudy.16 mph100%29.50 "Hg5 mi
11:20 PM28 °FLight snow. Partly cloudy.18 mph100%29.50 "Hg3 mi
10:50 PM28 °FLight snow. Partly cloudy.17 mph100%29.47 "Hg3 mi
10:20 PM30 °FLight snow. Partly cloudy.16 mph100%29.47 "Hg2 mi
9:50 PM30 °FLight snow. Ice fog.15 mph100%29.45 "Hg1 mi
9:20 PM32 °FLight snow. Ice fog.13 mph100%29.42 "Hg1 mi
8:50 PM32 °FLight snow. Ice fog.13 mph100%29.42 "Hg1 mi
8:20 PM32 °FSnow. Ice fog.12 mph100%29.39 "Hg1 mi
7:50 PM32 °FLight snow. Ice fog.9 mph100%29.39 "Hg1 mi
7:20 PM32 °FLight snow. Ice fog.7 mph100%29.36 "Hg2 mi
6:50 PM32 °FLight snow. Ice fog.6 mph100%29.33 "Hg1 mi
6:20 PM32 °FLight snow. Passing clouds.6 mph100%29.33 "Hg2 mi
5:50 PM32 °FLight snow. Passing clouds.8 mph100%29.33 "Hg3 mi
5:20 PM32 °FLight snow. Passing clouds.7 mph100%29.30 "Hg2 mi
4:50 PM32 °FPassing clouds.6 mph100%29.30 "Hg2 mi
4:20 PM32 °FLight snow. Ice fog.6 mph100%29.27 "Hg1 mi
3:50 PM32 °FLight snow. Ice fog.5 mph100%29.27 "Hg1 mi
3:20 PM32 °FLight snow. Ice fog.5 mph100%29.27 "Hg1 mi
2:50 PM32 °FLight snow. Ice fog.7 mph100%29.27 "Hg1 mi
2:20 PM32 °FLight snow. Ice fog.6 mph100%29.27 "Hg1 mi
1:50 PM32 °FLight snow. Ice fog.8 mph100%29.27 "Hg1 mi
1:20 PM32 °FLight snow. Ice fog.7 mph100%29.30 "Hg2 mi
12:50 PM32 °FSnow. Ice fog.8 mph100%29.30 "Hg1 mi
12:20 PM34 °FLight snow. Partly sunny.9 mph93%29.33 "Hg4 mi
11:50 AM34 °FLight snow. Fog.8 mph100%29.33 "Hg1 mi
11:20 AM34 °FLight snow. Partly sunny.8 mph93%29.36 "Hg2 mi
10:50 AM34 °FLight snow. Partly sunny.7 mph93%29.36 "HgN/A
10:20 AM34 °FLight snow. Partly sunny.8 mph93%29.36 "HgN/A
9:50 AM32 °FBroken clouds.10 mph100%29.39 "Hg3 mi
9:20 AM32 °FLight snow. Fog.12 mph100%29.36 "Hg0 mi
Weather by CustomWeather, © 2014

See weather overviewHow to use our weather pages